Wind_Speed
14 15 15 15 16 16 16 16 16 17 17 17 17 17 17 17 17 17 17 17 18 18 18 18 17 17 16 15 15 15 14 14 13 13 13 13 14 14 15 15 14 15 17 20 23 25 26 25 24 22 21 21 21 21 21 20 20 19 19 19 19 18 18 14 10 10 11 8 6 8 9 9 7 5 3 4 4 3 4 3 3 5 4 4 4 2 1 1
13 13 14 15 15 16 16 16 16 16 17 17 17 17 17 17 17 17 17 18 18 18 18 18 18 17 16 15 15 15 14 13 13 12 12 12 12 13 13 13 13 15 17 19 23 26 27 26 25 23 23 22 22 22 21 21 20 20 20 20 19 18 16 13 10 10 11 7 5 7 7 6 6 6 2 1 3 3 4 4 4 5 4 6 5 3 2 1
12 13 13 13 14 15 15 16 16 16 16 16 16 16 17 17 17 17 18 18 19 19 18 18 17 16 16 15 15 14 13 12 12 12 12 12 11 11 12 12 13 15 17 19 23 26 28 27 25 24 24 23 23 23 22 21 21 20 21 21 20 17 15 13 11 10 10 8 6 5 6 5 5 5 2 2 1 1 1 3 4 3 5 7 8 6 5 3
12 12 13 13 13 13 14 14 15 16 16 16 16 16 16 16 17 17 18 18 18 18 18 17 16 16 15 14 14 13 13 12 12 12 11 10 10 10 10 11 13 14 15 18 21 26 27 27 25 25 25 24 24 24 23 22 21 22 23 21 19 17 15 13 11 11 11 10 7 6 6 5 4 3 0 3 2 3 2 1 2 5 6 8 7 6 5 4
12 12 13 13 13 13 13 13 14 14 15 15 15 15 15 16 16 16 17 17 18 17 17 16 15 14 14 14 13 12 12 10 11 11 10 9 9 8 8 9 12 13 14 16 20 24 27 26 25 26 25 25 25 24 23 23 22 22 23 21 19 18 16 12 9 12 12 12 10 7 7 5 4 2 2 4 5 7 6 5 6 7 7 6 4 3 2 2
13 13 13 13 13 13 13 13 13 13 14 14 14 15 15 15 15 16 16 16 16 16 16 15 14 13 13 13 12 12 10 8 9 9 9 9 9 8 7 7 9 12 14 16 18 22 24 25 25 26 26 25 24 24 23 23 22 22 22 21 20 19 16 10 10 12 11 13 12 10 9 8 5 4 4 5 6 6 6 6 7 7 7 6 3 1 1 3
14 14 14 14 14 13 13 13 13 12 13 13 13 13 14 14 14 15 15 15 15 15 15 14 13 13 12 12 12 11 10 9 10 9 9 9 9 8 7 7 7 10 14 15 17 19 22 23 24 25 26 25 23 23 22 22 22 22 22 22 21 19 15 11 12 12 11 13 13 12 12 11 7 6 6 6 6 6 7 6 7 8 8 6 3 1 2 4
14 14 14 14 14 14 14 13 13 12 12 12 12 13 13 13 14 14 14 14 14 14 14 13 13 12 12 11 12 11 9 10 11 10 11 11 11 10 10 9 7 8 13 14 16 17 19 20 22 24 24 23 22 21 21 20 21 23 22 21 19 19 16 14 14 13 12 13 13 14 15 13 9 8 8 7 7 7 7 8 9 9 8 5 3 0 2 3
15 15 15 15 14 14 14 13 13 12 12 12 12 12 12 12 13 13 13 13 13 13 13 12 12 12 11 11 11 10 9 10 10 11 12 12 11 10 10 10 8 8 12 14 16 16 16 17 20 21 21 21 20 19 20 19 19 22 21 19 18 18 17 16 16 14 13 14 14 15 16 14 10 9 9 8 7 6 7 8 8 8 6 3 3 0 1 2
15 15 14 14 14 14 14 14 13 13 12 12 12 12 11 12 12 13 13 13 13 13 12 12 12 11 11 10 10 9 9 10 9 9 10 10 10 10 10 9 8 9 11 13 14 13 15 16 18 20 19 19 19 18 19 18 17 17 17 19 18 17 18 17 15 13 13 14 15 14 15 13 11 10 10 9 8 6 7 8 7 7 5 4 3 1 1 2
14 14 14 13 13 13 13 14 13 13 12 12 12 12 11 11 12 13 13 13 13 13 12 12 12 11 10 10 8 8 9 9 9 9 9 8 9 9 9 9 8 9 10 11 11 12 15 17 18 18 18 17 18 18 17 16 16 14 14 17 18 17 17 16 13 11 11 12 14 13 13 13 12 11 11 10 8 7 8 8 7 6 6 6 4 2 3 3
12 12 12 12 12 12 13 13 13 13 12 12 12 12 11 12 12 13 13 13 13 13 12 12 11 11 10 8 7 8 8 8 8 9 8 7 8 9 9 9 9 10 10 10 13 15 17 19 18 17 17 17 16 15 14 14 14 13 12 13 15 16 16 14 11 8 8 10 12 13 14 15 14 12 11 11 9 8 8 7 8 8 7 7 5 4 4 3
11 10 10 11 11 11 12 12 13 13 12 13 13 12 11 12 13 14 14 13 13 13 12 12 11 11 10 8 8 9 7 7 9 9 8 7 8 9 9 9 10 12 13 15 17 18 18 18 18 16 16 15 13 12 11 11 12 11 11 10 11 13 14 13 11 10 10 10 11 13 15 15 14 13 12 11 9 9 9 9 10 9 8 7 6 5 4 4
10 10 10 10 10 11 11 12 12 13 13 14 13 13 12 12 13 15 15 14 14 13 13 12 12 11 9 8 9 7 3 5 8 8 7 6 7 8 8 9 11 14 19 22 22 20 16 16 18 15 13 13 13 12 10 10 11 11 10 9 9 10 11 12 12 13 13 12 12 14 17 17 15 13 13 11 10 10 11 11 10 8 8 8 6 5 4 4
11 11 11 11 11 12 12 12 13 13 14 14 14 13 13 13 13 15 16 15 15 14 14 13 12 11 9 8 8 5 5 5 6 7 6 7 7 7 8 10 14 19 23 25 22 18 15 14 17 14 11 13 13 12 12 9 9 10 9 6 7 9 10 11 11 12 12 11 13 15 17 19 18 17 15 13 12 12 12 12 9 7 9 8 6 6 5 4
11 11 12 12 12 13 13 13 13 14 14 14 14 14 14 14 14 15 15 16 17 16 15 13 12 11 9 8 8 6 7 7 6 6 7 7 9 10 11 14 19 23 25 24 20 16 14 12 15 15 12 13 12 12 12 10 8 9 8 5 5 7 8 8 6 6 5 8 11 14 16 16 16 17 17 15 14 14 13 11 8 8 10 9 8 8 6 4
12 12 12 13 13 13 13 14 14 14 14 14 13 14 14 13 14 14 14 16 17 18 17 14 12 11 9 8 9 9 9 9 8 7 8 9 11 12 15 18 22 24 24 22 19 15 13 12 13 16 14 12 11 11 11 9 9 8 6 5 5 5 6 7 4 2 5 9 9 11 13 13 11 10 10 12 13 14 14 11 9 10 11 11 10 9 6 5
13 13 13 13 13 13 13 13 14 14 14 14 13 13 13 13 13 12 12 13 15 16 16 14 13 11 9 9 11 12 11 10 10 10 10 10 12 15 18 21 22 23 22 21 19 15 12 12 12 13 14 13 11 11 11 10 9 7 4 5 5 5 6 7 5 6 11 12 11 9 11 12 13 11 8 8 9 11 12 11 11 12 13 12 10 9 7 6
13 13 13 13 13 12 12 13 13 13 13 13 12 13 13 13 13 11 11 11 10 11 11 12 13 11 9 11 12 12 11 11 11 12 12 11 13 17 19 21 20 22 22 19 18 16 12 12 13 12 14 14 12 12 13 10 7 4 4 5 3 4 6 7 8 10 14 15 12 10 11 11 13 15 12 9 8 8 10 12 14 14 14 12 11 10 8 9
13 13 13 13 12 12 12 12 12 12 12 12 12 12 12 13 13 12 13 12 10 9 10 11 13 14 12 13 13 12 12 12 12 13 12 12 14 17 19 19 18 21 22 18 16 17 14 12 15 16 14 14 13 13 13 10 7 5 4 3 2 5 7 7 8 11 14 12 10 11 10 10 13 14 13 10 10 10 13 15 15 15 14 13 11 10 10 11
14 13 13 13 12 12 11 11 11 11 11 11 11 11 13 15 13 13 15 13 10 13 15 13 14 15 15 15 15 14 13 13 14 15 14 14 15 17 19 19 18 20 21 19 16 15 16 15 16 15 12 12 13 12 12 11 8 6 4 4 2 5 8 6 5 9 10 6 7 12 13 12 13 13 11 9 10 12 15 15 16 15 14 12 12 11 11 11
15 14 13 13 13 12 10 10 10 11 10 10 11 12 14 15 15 16 18 14 7 12 18 16 14 14 17 17 16 17 16 15 17 18 17 16 16 16 17 18 18 18 18 20 17 14 16 16 12 8 7 10 11 12 12 10 8 7 6 6 3 4 8 6 3 7 7 2 4 12 16 15 14 12 9 7 9 13 14 15 16 15 13 12 13 12 11 9
16 15 14 13 13 12 11 9 10 10 10 10 11 14 15 14 15 16 19 19 8 8 14 15 13 12 17 19 18 19 17 16 18 19 18 17 17 15 16 16 16 15 16 18 17 14 14 11 8 8 7 9 11 11 11 9 8 9 8 6 4 4 8 8 3 5 6 3 4 10 14 13 13 12 9 8 10 14 16 16 16 14 13 12 13 13 11 8
17 16 15 14 13 13 12 9 9 11 10 11 13 15 14 12 13 14 17 21 13 5 10 13 10 9 18 22 21 20 16 15 17 17 17 17 16 15 15 15 14 14 15 16 15 14 11 7 9 8 5 6 8 9 11 10 10 10 9 7 2 3 7 8 5 3 4 5 9 10 9 9 11 12 11 12 12 14 16 16 16 16 15 13 14 15 12 8
19 18 17 15 14 14 13 10 10 11 11 13 14 14 12 10 11 13 16 21 17 7 8 11 7 7 19 25 22 19 16 15 15 14 15 13 13 14 15 15 15 15 15 16 14 13 10 7 5 3 0 3 6 9 11 10 11 11 9 6 1 2 5 5 3 2 1 4 9 10 5 5 8 11 12 14 15 16 16 17 18 18 16 16 17 16 13 10
19 19 19 17 15 14 14 12 10 11 12 14 15 13 11 9 9 13 16 20 17 7 4 6 6 7 17 25 22 18 16 15 14 14 13 11 11 12 13 15 16 15 16 14 12 12 11 7 3 1 4 5 6 11 12 11 12 10 6 4 3 1 4 3 1 2 3 4 6 7 5 4 6 8 9 11 14 16 17 16 18 19 18 19 20 18 15 12
19 20 20 19 17 16 15 14 12 12 13 15 15 13 10 8 8 13 14 13 10 3 3 3 5 6 14 24 23 18 13 11 14 17 14 12 11 11 12 14 15 14 14 12 10 11 10 6 4 3 6 5 7 12 12 12 12 9 5 3 0 1 4 3 1 2 4 6 4 4 8 8 6 8 8 8 10 13 16 17 19 20 21 21 21 20 17 14
20 20 20 20 19 18 17 15 14 13 14 15 15 13 10 7 7 11 9 4 3 2 3 1 5 4 11 24 24 19 11 6 14 19 16 13 11 11 12 11 11 11 11 12 12 10 8 6 4 5 5 2 9 12 10 11 11 8 6 4 3 2 4 4 2 1 4 7 4 5 10 8 5 9 9 7 8 10 13 16 19 22 22 22 22 22 19 16
21 21 21 20 20 20 19 16 15 16 15 15 15 13 10 7 7 8 5 1 2 1 1 1 4 2 9 21 22 20 15 7 10 16 16 15 13 12 12 10 10 10 10 12 14 11 8 8 7 6 4 2 8 10 9 10 10 8 7 6 6 5 5 5 3 3 4 5 4 5 9 5 4 10 11 7 7 7 8 12 18 23 24 23 24 23 21 18
21 22 22 21 20 21 20 17 16 18 16 14 15 15 12 9 7 5 2 2 2 1 1 1 4 1 5 16 19 20 19 11 8 11 14 15 14 14 14 12 11 11 11 13 15 13 11 11 10 7 4 3 4 9 10 11 10 8 8 7 6 6 6 4 4 5 4 2 3 6 9 6 3 8 13 10 8 7 7 8 12 19 23 25 26 25 23 21
21 22 23 22 21 21 20 17 18 21 17 14 15 15 14 11 8 3 1 4 3 1 1 2 5 3 2 10 17 19 21 17 11 11 12 14 16 18 18 16 14 11 12 14 15 14 13 13 11 9 7 6 6 9 11 12 12 10 8 7 6 6 6 4 3 6 3 2 4 7 8 7 5 8 13 12 10 8 7 7 8 14 20 25 27 26 24 22
21 21 22 23 22 21 19 17 20 22 19 16 15 15 14 9 9 10 7 4 3 3 4 4 5 4 1 6 14 19 21 20 18 16 14 13 15 18 19 18 17 13 11 14 14 13 13 12 11 10 9 8 7 11 12 12 13 12 10 9 7 3 2 2 2 2 2 2 5 8 8 7 7 8 9 9 9 8 8 8 8 11 17 23 27 28 26 24
20 21 21 23 23 20 18 18 21 22 21 18 16 16 15 8 7 16 17 9 3 4 5 3 3 3 2 5 9 14 19 21 21 20 19 17 15 15 15 17 19 16 11 11 14 14 11 10 12 12 10 9 10 13 15 14 14 14 14 13 9 4 3 1 2 1 2 2 6 8 7 5 5 6 8 10 9 8 8 8 9 11 15 21 27 30 28 26
20 20 20 22 22 20 19 19 21 23 22 20 19 17 16 11 9 15 18 14 11 8 7 7 7 5 4 5 6 8 13 16 19 20 20 20 18 16 16 16 18 20 17 12 11 11 8 7 10 12 10 8 11 14 14 14 13 13 15 15 13 9 5 3 4 2 2 4 6 8 5 3 4 4 7 11 10 9 10 10 11 13 15 20 26 31 31 29
18 19 20 20 21 20 19 20 22 24 23 22 21 19 21 20 17 16 15 13 13 13 13 12 11 9 7 7 7 7 9 10 12 17 20 20 21 19 18 16 16 20 21 16 10 8 8 7 8 13 13 10 10 15 16 15 12 13 16 16 14 12 9 6 5 6 6 5 4 6 4 3 5 7 9 10 11 11 11 11 11 14 17 20 24 29 31 31
17 18 19 20 21 20 20 21 23 25 25 24 23 24 27 26 19 14 13 12 12 12 13 11 10 10 9 10 11 8 7 7 9 13 16 18 20 20 19 16 15 18 21 19 13 9 9 9 8 12 15 13 12 15 19 19 13 12 17 19 15 12 11 7 5 5 6 5 3 5 4 4 6 6 8 10 10 11 11 12 13 15 17 18 21 28 32 34
16 16 18 20 20 19 18 20 23 26 27 27 27 28 29 27 21 16 11 10 9 8 8 7 6 7 6 8 13 12 7 4 6 11 13 13 15 19 21 18 15 17 19 20 18 12 9 10 11 12 13 13 13 13 16 20 17 12 15 19 16 11 10 9 5 3 3 3 3 4 4 8 8 4 7 10 7 7 10 11 13 15 17 18 20 23 23 26
17 15 17 19 19 18 17 19 23 28 28 28 30 30 29 28 25 21 16 12 10 8 9 10 7 6 4 5 11 16 14 7 5 9 12 12 10 12 18 18 16 17 19 19 20 16 12 9 9 12 12 11 12 13 13 15 17 14 11 15 14 9 9 11 7 3 3 2 2 2 3 10 13 7 8 11 8 8 10 11 12 12 13 14 13 12 9 10
18 15 15 17 18 16 16 18 23 27 29 30 31 30 29 28 26 24 22 19 16 14 14 13 9 7 6 5 5 11 19 16 10 9 11 13 11 8 11 13 12 15 19 20 20 18 16 12 7 10 11 10 12 14 13 13 15 14 10 14 15 9 9 13 9 6 7 4 2 2 2 8 15 13 11 12 11 10 12 13 13 11 11 10 7 8 8 6
19 15 13 14 16 14 14 18 23 27 30 32 31 29 28 27 25 24 23 21 19 17 14 12 10 9 10 9 5 6 15 17 14 12 11 12 14 10 10 11 9 9 13 17 20 20 19 17 10 8 10 11 11 13 13 13 14 14 13 16 16 11 9 12 8 6 7 4 3 3 1 5 14 16 14 13 12 12 14 14 11 9 9 9 7 7 7 4
19 15 11 12 12 11 13 18 24 28 30 31 30 28 27 25 23 21 20 19 18 16 15 14 13 13 13 11 7 7 11 13 14 15 14 13 15 12 11 13 9 6 7 11 18 21 20 19 14 9 10 10 9 10 12 12 12 12 13 16 15 13 11 10 5 5 7 5 5 5 2 4 13 17 16 14 14 15 16 15 12 11 10 8 7 6 5 6
18 14 10 9 8 7 11 18 23 26 28 29 27 25 24 24 21 19 17 16 16 15 15 15 14 15 14 12 10 10 11 13 14 16 17 17 17 14 12 13 12 8 7 9 16 20 19 18 15 10 9 10 9 8 11 11 9 10 11 13 14 13 14 11 6 8 10 6 5 7 3 5 12 15 15 14 14 15 16 16 14 12 12 10 9 9 11 11
17 13 9 8 6 6 11 17 20 22 24 25 24 22 21 19 19 18 16 15 15 14 14 14 13 14 14 12 12 11 11 14 14 15 17 17 17 16 12 10 11 11 9 8 12 18 18 14 13 12 11 12 11 9 10 10 8 8 8 10 13 12 14 13 9 11 14 10 7 6 2 6 13 13 12 11 11 12 15 15 13 11 12 12 10 10 10 12
16 12 8 6 6 9 13 16 19 20 20 21 21 19 17 16 15 15 13 12 12 11 12 12 12 13 13 11 12 11 11 13 15 15 16 15 16 16 12 9 8 10 12 10 9 15 14 11 13 14 9 7 8 7 8 9 8 8 8 9 10 10 11 12 10 12 14 13 12 7 3 9 15 14 12 11 9 11 15 15 13 12 12 12 11 10 10 12
15 10 6 6 6 12 16 16 17 18 19 19 17 15 14 13 12 13 12 10 10 10 10 8 9 11 12 10 11 10 10 12 13 14 16 16 16 16 16 14 11 8 11 12 10 11 10 10 14 14 8 6 7 5 7 10 11 10 10 9 8 8 8 9 10 12 12 13 15 10 6 13 19 16 13 12 11 12 15 15 14 14 15 14 13 12 13 14
14 8 5 5 5 9 12 14 15 16 17 18 15 14 14 13 11 12 11 10 10 11 9 7 6 9 11 11 11 10 10 12 13 13 16 17 17 16 18 20 18 11 10 11 11 10 8 8 9 12 14 15 12 10 11 13 13 12 11 10 9 8 7 7 9 11 12 14 15 11 9 15 21 19 15 14 14 14 16 16 16 17 17 16 15 15 14 13
15 10 7 5 4 5 5 8 12 14 17 18 15 12 12 12 11 11 10 10 10 10 9 7 7 8 9 11 11 10 9 11 12 14 16 18 18 16 17 20 21 17 14 13 11 11 10 8 6 5 9 9 7 8 11 12 12 11 11 11 10 8 5 4 5 6 10 12 11 11 11 15 20 21 17 16 16 16 17 18 17 18 18 16 16 15 14 13
15 13 11 8 5 5 4 1 7 11 16 18 15 12 12 14 13 11 10 10 10 11 9 7 8 8 9 9 9 9 10 10 10 13 16 17 16 14 14 16 18 19 20 19 14 11 10 7 4 4 5 4 5 7 6 6 6 5 5 6 8 7 4 2 1 2 6 8 8 11 15 16 19 21 19 18 18 18 19 19 18 18 17 16 16 15 14 13
16 15 13 11 8 7 6 4 5 9 13 16 16 14 14 15 14 12 12 11 10 10 9 7 7 7 8 9 8 9 10 10 11 12 14 15 14 13 12 11 11 14 18 20 18 16 12 10 8 6 4 6 8 8 7 7 7 4 1 0 2 4 3 2 3 4 5 6 6 10 15 18 20 21 21 20 20 19 19 19 19 19 17 16 16 15 14 13
16 15 14 13 10 8 7 5 3 4 8 13 15 16 15 14 13 11 11 10 10 10 9 7 6 7 7 7 7 8 10 10 11 13 14 14 13 13 12 9 8 10 12 15 18 18 16 13 13 13 11 11 12 11 9 6 1 5 6 4 3 3 2 3 5 7 8 9 8 9 14 18 18 19 20 20 19 19 19 20 20 20 18 17 16 15 15 14
12 13 13 12 11 10 9 8 7 5 5 9 12 16 16 14 13 10 9 9 9 9 9 7 6 6 5 5 5 6 7 8 10 12 13 14 13 12 10 8 8 10 10 12 14 16 16 15 15 16 14 13 14 14 12 11 10 10 11 10 9 8 7 6 7 9 10 11 11 13 16 19 18 19 20 20 19 19 19 20 21 21 20 18 17 16 16 15
10 9 10 11 11 12 12 11 8 7 7 9 11 13 13 13 11 8 7 9 8 7 7 5 4 4 4 5 5 5 6 7 9 11 12 12 11 10 10 9 8 10 10 10 11 13 14 15 16 16 14 13 12 9 7 9 8 8 11 13 12 11 11 10 10 11 11 11 13 16 19 20 20 20 20 19 20 19 19 20 21 21 21 20 19 19 18 18
Wind_Direction
295 293 292 290 289 286 284 282 280 278 276 275 273 273 272 271 270 269 269 269 269 270 272 273 273 274 274 275 276 277 276 275 273 269 265 261 257 253 250 248 242 234 226 219 214 216 218 217 216 215 214 214 216 219 220 220 220 219 218 221 223 225 226 223 219 194 164 144 114 114 107 91 73 53 92 104 86 74 63 101 91 70 63 34 28 37 88 163
298 297 296 295 293 289 286 284 280 278 275 273 272 271 269 268 268 267 267 267 268 269 271 272 273 274 274 275 276 277 277 277 274 270 266 261 257 252 250 249 242 234 226 216 212 214 217 216 215 214 213 213 214 216 217 217 219 218 219 223 224 228 230 225 214 187 174 172 136 120 110 95 78 54 69 93 30 42 53 65 62 48 33 11 356 340 306 254
301 302 301 301 298 294 290 286 282 278 275 273 271 269 268 267 266 265 265 265 267 268 270 271 272 272 273 274 276 277 278 277 274 271 266 261 257 253 250 245 239 234 228 218 212 213 216 216 213 213 212 212 214 216 216 215 215 216 219 222 224 230 234 231 215 194 199 198 165 137 126 120 110 69 51 205 162 169 97 66 53 21 359 347 333 319 306 293
302 303 304 304 303 301 297 292 286 281 277 273 271 269 267 266 266 265 264 265 266 267 269 269 270 271 272 273 275 277 277 277 274 270 268 265 259 253 249 244 237 233 229 222 215 212 214 215 212 212 212 212 215 216 216 215 213 213 217 219 224 230 233 234 218 205 215 210 187 163 151 146 146 106 142 217 235 257 271 354 340 331 331 327 318 308 301 292
303 304 305 305 304 303 302 300 294 286 280 276 273 270 268 267 265 265 265 265 266 267 268 268 269 269 270 271 273 274 274 275 271 267 267 265 259 252 247 244 240 233 227 223 218 214 213 214 211 211 212 212 214 216 217 217 214 213 216 218 223 228 230 229 211 202 208 210 199 181 182 181 180 194 240 247 272 286 290 300 310 319 319 309 299 294 296 299
303 305 305 305 304 303 303 303 302 295 287 280 276 273 270 268 266 265 264 264 265 266 266 267 267 267 268 270 270 269 268 265 260 260 262 260 259 255 249 248 244 234 226 222 219 216 213 212 210 210 212 212 214 215 217 219 217 217 218 220 222 227 229 213 190 192 196 203 201 196 204 198 195 238 262 256 266 279 283 296 308 308 303 294 276 246 354 358
303 303 303 304 303 302 301 302 303 302 295 287 281 277 273 270 267 265 264 264 263 263 264 264 264 264 266 267 267 266 262 253 251 253 253 255 258 260 261 260 250 235 226 221 219 216 213 211 209 210 211 212 214 214 217 220 220 221 221 224 226 229 226 197 183 192 198 199 198 206 213 204 206 244 259 256 255 258 265 280 291 291 292 286 261 184 30 11
301 301 302 302 301 300 299 300 301 302 300 293 286 279 274 271 267 265 264 263 262 262 261 260 261 261 262 264 264 264 258 249 248 248 250 252 256 262 267 264 256 238 225 219 217 214 212 210 208 209 210 212 213 213 216 219 223 225 225 226 228 230 225 208 200 200 204 201 199 211 214 209 217 244 256 258 257 260 269 278 283 284 283 269 235 130 26 15
300 300 299 299 298 297 296 296 297 299 299 296 289 281 275 270 267 264 263 262 262 260 260 259 259 259 259 260 263 264 257 248 245 245 249 254 256 256 259 258 251 239 224 216 214 208 207 207 207 207 207 209 211 211 213 213 220 227 229 227 225 227 222 216 211 205 209 207 206 216 213 212 227 250 257 257 266 283 288 286 282 275 266 229 192 186 6 47
300 299 298 297 296 295 294 293 294 295 297 296 291 283 275 269 265 263 262 261 260 259 259 258 257 257 258 259 264 265 255 246 241 244 251 257 257 251 251 249 241 236 221 212 210 201 198 197 199 202 201 204 206 206 207 207 214 224 230 227 222 220 217 218 217 214 222 219 214 219 217 217 233 249 252 253 270 288 288 283 271 251 224 189 188 225 80 113
301 300 299 298 297 295 293 292 292 293 295 294 291 284 276 268 264 263 261 260 259 258 257 257 256 256 256 257 265 262 249 240 236 243 256 262 259 252 249 238 228 224 213 203 191 185 188 185 190 197 197 200 202 202 204 207 213 218 225 226 222 221 220 223 223 222 235 232 222 223 226 228 237 247 249 251 262 271 278 272 244 220 196 186 187 169 131 123
301 302 302 302 301 298 296 294 293 292 292 291 289 286 277 267 262 262 262 260 258 258 256 256 255 253 252 253 255 250 241 234 232 240 253 258 252 243 237 229 215 203 193 177 168 176 182 183 188 194 197 200 200 202 205 209 215 218 226 231 228 230 232 231 230 230 240 239 228 228 233 236 243 249 247 248 251 254 259 238 204 189 188 191 175 154 136 117
299 302 304 307 306 305 302 299 295 292 289 287 287 287 281 269 261 258 259 260 258 257 255 253 252 251 251 246 242 243 239 231 230 236 246 245 238 230 220 213 204 189 167 154 163 177 181 185 191 195 202 201 197 201 201 204 211 213 226 237 233 237 241 236 237 237 237 237 232 234 239 240 247 250 244 242 240 241 235 211 193 182 192 197 172 152 131 108
296 298 302 307 308 309 308 305 301 295 289 286 287 287 283 273 262 255 254 256 257 255 253 251 250 249 247 244 240 232 204 213 221 228 234 229 225 217 203 197 194 178 157 156 168 177 179 187 193 196 205 199 198 204 193 192 201 204 220 235 236 241 241 236 243 249 246 245 244 247 248 246 248 247 238 232 228 231 224 209 201 186 193 198 172 150 134 126
292 295 299 303 305 307 307 307 306 302 296 289 287 285 281 277 269 260 254 251 252 251 250 248 248 249 242 238 237 209 166 191 209 215 215 212 208 189 182 182 175 166 159 165 173 175 178 188 193 194 201 199 201 205 197 197 197 202 216 222 230 241 244 244 248 252 251 251 250 249 251 252 251 247 239 231 227 225 217 212 213 190 189 197 173 159 160 158
290 294 298 300 302 303 303 305 305 307 306 298 289 284 282 280 275 269 259 252 249 248 248 245 246 249 240 231 225 192 168 179 193 204 197 197 191 171 171 172 167 166 167 172 174 176 184 187 193 197 200 204 207 206 204 208 201 205 216 213 226 240 250 254 231 221 248 262 255 246 248 252 249 246 237 227 220 211 207 208 207 187 185 196 182 176 177 163
289 293 297 299 301 300 300 301 302 306 311 306 294 285 283 281 278 275 268 259 252 248 247 244 242 244 239 230 213 189 183 183 179 184 184 194 189 169 169 171 169 172 172 175 176 181 191 190 195 202 204 210 215 210 210 216 209 202 212 224 234 239 256 264 223 219 297 287 274 251 240 239 233 226 211 203 201 195 196 195 186 177 182 195 188 177 175 162
288 291 295 298 300 300 299 298 301 304 310 309 297 285 279 277 279 279 275 268 261 257 253 247 243 242 231 220 206 192 191 188 179 176 178 189 184 170 171 175 177 178 174 179 183 185 197 201 202 206 210 216 222 217 213 213 205 195 213 227 231 242 263 283 290 312 308 290 279 253 225 221 222 217 199 196 204 199 198 191 182 183 188 195 185 172 173 161
287 288 291 295 298 299 297 295 298 301 306 306 293 284 279 278 283 286 284 280 277 269 259 247 239 229 208 200 202 197 190 190 186 178 174 178 177 172 175 180 182 181 180 185 191 193 204 214 216 217 217 220 228 228 217 206 195 196 215 216 238 279 277 297 318 323 312 293 272 242 214 206 214 221 222 225 236 223 201 188 184 189 196 195 181 174 174 158
287 287 288 292 295 298 296 294 295 298 302 300 289 285 281 280 282 283 284 286 291 281 263 251 237 220 202 195 201 199 191 192 186 175 170 170 171 172 179 185 184 185 188 190 196 203 211 223 227 231 233 231 234 234 220 210 217 233 228 215 305 322 301 310 330 328 317 296 252 222 211 203 208 220 228 239 251 224 194 185 181 185 196 196 183 177 170 159
286 286 287 289 292 294 294 291 292 295 297 291 284 280 277 281 287 291 293 289 283 276 268 259 242 219 200 198 199 194 191 187 179 173 168 167 171 176 182 188 190 192 193 195 200 205 214 226 231 235 239 232 227 220 212 214 228 236 231 240 309 332 317 322 343 335 327 304 231 210 207 207 211 221 232 244 236 202 184 180 178 183 194 196 187 180 171 165
284 283 284 286 289 290 291 287 286 289 288 282 273 270 273 283 297 307 309 304 272 257 264 260 248 223 200 200 196 188 187 178 175 177 173 172 176 180 184 189 195 195 196 201 202 199 213 225 223 215 211 205 201 198 204 214 223 229 236 252 281 329 325 324 353 350 346 338 203 197 199 204 211 219 230 235 210 188 181 180 179 186 197 199 193 187 185 183
283 281 279 281 284 286 287 282 278 279 278 271 261 263 272 286 304 315 318 315 296 239 259 263 258 226 197 198 196 190 186 174 178 183 182 182 183 187 190 187 188 188 189 194 193 195 210 215 184 172 181 189 193 199 210 218 218 226 238 249 271 316 320 316 328 2 7 56 134 171 183 191 203 214 216 211 200 192 188 186 186 194 207 209 199 195 195 189
282 280 277 275 278 281 282 277 270 269 269 263 257 263 277 293 313 323 322 315 307 258 263 265 262 222 194 196 198 195 189 180 186 191 190 190 187 189 190 185 185 185 185 184 192 205 200 166 157 165 172 192 205 213 217 220 216 223 237 243 289 322 297 301 313 345 20 79 126 146 149 161 185 204 208 206 208 205 198 191 190 196 206 209 202 199 194 179
279 278 276 272 271 274 276 272 262 261 260 258 259 267 281 300 321 329 326 317 312 297 273 263 255 211 193 197 200 199 200 194 192 198 198 191 187 188 186 189 193 188 186 188 205 215 185 155 168 165 6 249 228 218 213 220 225 230 237 224 88 4 273 288 322 279 284 107 142 153 127 126 173 195 214 219 220 215 206 200 198 200 205 204 202 202 195 181
277 275 274 271 267 265 268 267 257 254 252 253 262 269 281 298 317 328 325 314 309 307 294 265 234 209 197 199 200 200 210 210 195 198 200 186 185 192 189 195 197 191 192 200 220 219 189 180 198 189 338 314 239 215 212 221 231 235 229 175 118 330 254 267 344 246 214 132 141 165 157 131 157 177 198 213 218 216 214 212 208 205 204 203 203 203 199 187
277 274 272 269 266 260 259 261 256 250 246 250 261 268 279 290 307 325 327 314 308 317 328 281 206 209 199 199 202 201 209 211 195 197 196 182 182 189 195 204 201 194 197 207 221 214 197 194 201 237 322 326 218 210 211 216 225 227 204 172 177 274 236 237 297 258 193 154 139 154 154 142 140 155 163 178 200 213 220 223 218 210 206 204 203 206 204 193
276 273 271 268 265 260 253 255 254 249 245 246 255 262 272 279 295 319 334 332 326 350 340 276 177 201 197 197 204 204 201 193 194 198 189 181 191 196 200 203 196 195 202 214 221 215 209 212 221 258 311 299 207 209 209 210 219 218 198 213 272 276 229 221 222 243 184 175 182 160 154 146 148 159 156 169 191 205 214 216 216 212 208 206 205 208 208 198
275 272 270 266 264 261 254 250 248 248 246 243 248 253 258 267 285 310 334 325 312 16 23 122 170 213 203 198 202 204 202 186 186 194 188 188 198 203 206 199 196 212 221 227 232 230 231 238 249 263 287 248 209 209 204 203 214 217 212 236 261 253 219 194 208 229 197 194 206 178 173 174 171 170 166 171 179 183 199 205 208 210 209 207 207 210 210 203
277 272 268 264 261 260 256 248 243 245 245 239 240 245 248 257 266 293 316 234 273 23 301 210 169 168 214 205 202 201 204 199 171 179 193 202 204 206 214 213 216 231 237 241 244 243 244 252 258 253 261 289 237 213 201 200 213 223 231 242 238 226 212 202 228 215 197 225 206 181 189 194 182 173 172 176 175 167 178 192 203 209 209 206 206 210 211 207
280 274 269 264 258 257 255 248 241 242 242 235 233 235 240 246 240 222 169 238 260 267 167 147 161 159 228 217 210 204 208 211 198 186 198 209 210 215 220 222 223 230 242 249 252 250 248 250 251 241 246 281 261 215 196 198 212 223 238 231 207 204 201 207 224 188 174 281 192 177 190 198 199 175 167 173 180 181 186 193 203 211 211 208 206 209 212 210
283 275 271 266 258 254 252 245 240 240 238 231 228 227 225 224 219 216 219 249 275 202 171 140 158 166 197 229 217 214 216 221 220 217 222 222 219 221 224 227 226 224 235 241 243 251 250 244 241 237 245 264 246 213 200 203 211 217 224 205 182 153 150 197 244 188 206 240 173 175 186 201 222 211 193 188 185 188 202 208 212 217 218 215 210 209 212 213
287 278 271 267 261 253 246 240 238 239 236 228 224 219 211 200 220 229 229 233 230 187 186 200 193 191 255 236 220 223 226 228 228 228 231 231 228 227 230 234 231 228 232 232 234 245 251 245 236 233 243 250 231 212 207 209 211 215 217 202 180 124 86 223 262 337 278 213 173 178 186 210 238 238 235 234 228 225 230 233 231 225 223 220 214 211 213 214
291 282 272 267 263 255 243 234 234 235 232 226 220 210 200 202 224 233 235 240 243 243 251 255 245 245 256 230 219 225 226 231 233 230 230 228 227 231 234 235 233 232 234 235 237 238 240 244 232 226 234 240 225 217 218 222 221 223 220 212 203 183 152 186 214 194 187 176 172 177 185 231 228 228 241 240 244 248 247 247 237 225 222 223 217 213 214 217
295 285 276 267 260 254 242 230 228 231 229 224 217 204 203 213 222 231 240 246 250 256 258 257 255 256 251 230 220 217 216 228 232 229 230 229 231 236 237 236 233 229 228 228 233 230 228 237 224 216 220 224 224 221 221 223 225 223 216 213 216 207 188 175 185 184 162 138 157 188 212 236 213 227 239 237 246 252 249 242 226 218 221 221 215 212 216 220
303 287 277 268 258 252 244 230 224 226 227 223 213 208 215 222 225 230 238 241 249 254 251 253 255 252 247 233 228 220 211 224 229 224 227 230 235 238 236 236 235 230 225 221 219 216 219 225 210 208 215 219 227 226 220 220 223 216 210 211 213 209 201 181 152 150 141 131 175 201 206 185 187 220 226 229 250 250 237 225 212 212 215 210 207 209 215 221
311 288 275 271 261 253 245 232 222 221 224 221 215 218 225 228 227 227 227 227 233 240 251 263 248 232 242 240 232 223 206 219 234 225 222 223 232 236 234 235 235 232 228 223 224 225 223 222 210 209 215 213 220 228 221 221 224 217 209 212 208 198 198 180 134 92 98 119 205 206 188 174 169 192 209 210 229 225 214 207 204 212 212 208 211 211 217 231
315 291 275 271 264 254 244 232 221 219 220 219 219 226 231 231 229 228 226 222 224 237 264 278 263 237 254 255 235 225 218 230 251 236 226 218 220 229 231 233 233 232 230 226 229 232 232 231 211 207 217 215 213 218 211 210 216 217 213 210 202 188 186 173 146 130 152 140 239 230 213 193 188 191 197 193 178 173 190 189 187 201 203 204 215 212 224 265
315 299 279 271 265 256 242 229 221 217 216 217 220 226 232 233 232 231 232 234 240 252 263 268 260 242 239 251 260 230 222 232 245 239 230 218 211 214 219 222 223 230 233 231 232 232 229 231 216 200 208 205 198 203 199 195 203 208 206 201 198 198 193 182 172 167 165 160 193 199 251 213 202 199 190 186 178 171 176 173 170 180 186 193 223 240 253 285
316 307 288 273 266 257 240 226 216 213 215 220 223 225 230 236 234 234 237 242 248 253 254 252 246 240 238 246 269 226 218 230 235 231 233 217 207 207 210 209 203 217 233 232 231 229 225 226 223 198 195 192 187 195 194 189 194 200 197 194 197 201 186 176 180 176 161 153 158 164 276 216 202 202 195 193 197 187 178 177 186 208 213 212 234 258 264 234
318 311 296 279 271 261 239 219 210 210 214 221 226 227 231 237 238 237 238 242 248 250 247 245 242 241 244 246 250 225 220 231 226 222 232 223 208 205 210 210 205 216 243 228 218 218 218 220 219 202 191 187 180 182 180 179 188 193 194 195 197 200 186 166 171 190 176 170 168 170 201 185 188 201 205 204 209 206 200 207 226 240 233 224 228 220 196 171
321 315 300 282 278 266 234 213 205 208 214 220 226 228 232 239 243 242 240 240 246 247 245 245 245 244 245 247 250 245 237 239 232 223 228 229 222 217 215 217 215 224 249 226 206 206 209 214 212 193 175 171 171 176 172 175 188 189 195 201 197 198 195 182 180 189 179 173 169 165 165 173 182 197 207 209 215 215 215 221 229 232 228 224 216 191 170 163
333 327 305 283 277 254 225 210 205 209 215 221 227 229 232 238 242 244 244 241 242 243 242 243 246 244 243 242 245 248 241 235 235 230 225 221 216 212 208 215 218 220 227 215 194 195 200 203 186 156 142 153 162 171 167 167 186 189 185 193 194 197 200 199 206 197 183 176 166 153 138 178 183 189 194 198 205 206 208 210 209 217 224 216 199 182 176 178
343 337 312 288 263 228 213 209 210 212 216 222 227 230 230 233 238 239 238 234 229 227 228 234 236 233 232 233 236 242 238 227 227 229 220 205 199 200 195 197 210 218 217 210 189 188 194 193 169 144 118 138 160 171 172 168 184 189 170 169 185 197 201 204 207 194 185 184 180 172 166 177 181 184 180 177 180 188 195 194 192 204 213 205 197 200 207 208
349 344 326 307 262 225 214 214 217 218 220 220 221 222 219 219 226 225 220 222 219 211 208 220 230 225 221 223 228 235 236 223 219 219 213 205 205 210 212 212 210 211 214 210 199 190 186 180 175 167 158 168 174 182 184 176 177 176 166 160 166 178 189 199 198 188 188 193 190 186 175 173 180 184 179 173 170 174 181 180 180 192 200 201 205 213 217 216
356 356 350 335 287 244 223 216 218 222 221 215 211 213 209 207 219 223 218 219 216 207 203 210 221 214 208 213 221 227 228 220 217 215 209 206 208 211 217 221 217 212 218 216 207 203 184 156 166 188 194 194 194 190 185 183 179 169 167 173 170 165 176 190 194 195 196 195 194 198 189 178 181 184 183 182 178 173 174 175 178 189 199 206 213 216 217 217
5 12 10 3 336 301 258 218 210 212 215 212 205 205 203 199 207 213 208 205 203 201 206 214 215 204 194 198 206 208 209 213 215 214 206 201 204 205 209 218 220 218 226 228 215 207 190 147 108 140 174 183 185 178 179 186 183 169 165 172 170 164 167 178 188 200 197 192 198 207 200 188 186 186 187 189 185 181 180 182 187 196 205 212 215 216 218 219
18 27 23 23 18 360 355 253 179 179 194 199 189 181 185 184 184 185 183 185 189 193 202 210 214 212 198 191 196 193 189 195 200 204 201 197 201 205 202 212 223 222 227 231 224 209 194 170 140 129 123 112 113 121 143 164 159 152 156 165 173 177 183 212 234 210 196 201 219 214 201 193 187 185 186 189 186 182 184 189 197 203 208 212 215 218 220 222
32 36 34 34 33 34 41 66 127 144 158 164 158 154 165 170 168 169 172 175 177 184 196 203 202 205 198 192 197 193 183 183 184 188 194 193 194 196 191 199 218 223 226 228 221 218 207 184 190 206 174 155 157 147 143 132 98 67 59 136 218 215 222 269 266 247 228 228 240 224 205 194 186 182 184 186 185 182 185 192 199 201 204 209 213 218 221 223
39 40 36 31 27 29 42 67 84 110 136 140 132 125 130 142 150 153 161 170 175 176 181 187 182 184 189 188 192 191 183 182 180 178 184 188 187 187 182 181 192 202 215 217 212 219 218 200 205 218 197 178 190 197 198 196 271 312 296 290 276 254 249 259 248 243 238 233 233 227 211 199 189 185 186 187 187 186 187 191 195 197 200 206 211 216 220 224
38 40 34 25 23 23 23 37 48 56 112 125 113 104 104 114 122 126 133 143 159 169 170 177 179 181 204 212 200 192 183 180 181 179 182 184 181 178 174 169 174 179 188 201 206 216 219 207 207 215 202 193 216 236 243 244 251 262 263 259 260 262 261 250 239 234 231 229 225 218 210 203 197 193 193 195 195 194 193 194 196 199 202 205 208 213 218 222
25 27 27 20 23 26 22 25 42 62 87 97 88 80 79 88 96 103 114 114 119 138 147 158 171 168 201 228 228 225 213 198 192 189 189 188 181 174 164 154 160 169 171 181 192 201 211 210 209 211 202 194 210 221 191 180 190 213 226 232 240 248 248 238 227 223 223 222 221 216 210 207 202 198 198 202 202 202 203 204 205 207 208 211 214 217 221 226
Height
3090 3089 3088 3088 3087 3086 3086 3085 3085 3085 3084 3084 3084 3084 3083 3083 3083 3083 3084 3083 3083 3084 3084 3084 3084 3084 3085 3085 3085 3085 3084 3084 3084 3084 3085 3085 3085 3085 3085 3086 3087 3087 3088 3089 3090 3091 3091 3092 3094 3096 3098 3099 3100 3101 3102 3103 3105 3106 3107 3108 3108 3109 3110 3111 3113 3115 3117 3117 3118 3118 3118 3118 3118 3118 3120 3120 3121 3122 3123 3124 3124 3125 3126 3127 3127 3128 3129 3130
3089 3088 3087 3086 3086 3085 3084 3084 3083 3083 3083 3082 3082 3082 3082 3082 3082 3082 3082 3082 3082 3082 3082 3082 3082 3083 3083 3083 3083 3083 3083 3083 3083 3083 3083 3083 3083 3084 3084 3085 3085 3086 3086 3087 3088 3089 3089 3091 3093 3095 3096 3097 3099 3100 3101 3102 3104 3105 3106 3106 3107 3108 3110 3112 3114 3115 3116 3117 3117 3117 3118 3118 3118 3118 3119 3120 3121 3122 3123 3123 3124 3125 3125 3126 3127 3127 3128 3129
3088 3087 3086 3085 3085 3084 3083 3082 3082 3081 3081 3081 3081 3080 3080 3080 3080 3080 3080 3080 3080 3080 3081 3081 3081 3081 3081 3082 3082 3081 3081 3081 3081 3081 3081 3082 3082 3082 3083 3083 3084 3084 3084 3085 3086 3087 3087 3089 3091 3093 3095 3096 3097 3098 3099 3101 3102 3104 3104 3105 3106 3108 3110 3112 3114 3115 3115 3116 3116 3117 3117 3118 3118 3119 3119 3120 3121 3122 3123 3123 3124 3125 3125 3126 3126 3126 3127 3128
3087 3086 3085 3085 3084 3083 3082 3081 3081 3080 3080 3079 3079 3079 3079 3079 3079 3079 3079 3079 3079 3079 3079 3079 3080 3080 3080 3080 3080 3080 3080 3080 3080 3079 3080 3080 3080 3081 3081 3082 3082 3082 3083 3084 3085 3085 3086 3088 3090 3092 3093 3095 3096 3097 3098 3099 3101 3102 3103 3104 3106 3108 3109 3111 3113 3114 3114 3115 3115 3116 3117 3117 3118 3119 3119 3120 3121 3122 3122 3123 3124 3124 3125 3125 3125 3126 3126 3127
3086 3085 3085 3084 3083 3082 3081 3080 3080 3079 3078 3078 3077 3077 3077 3077 3077 3077 3077 3077 3077 3077 3078 3078 3078 3079 3079 3079 3079 3079 3079 3079 3078 3078 3078 3078 3079 3079 3080 3080 3080 3081 3082 3082 3083 3084 3085 3087 3089 3091 3092 3093 3094 3096 3097 3098 3099 3101 3102 3104 3105 3107 3108 3111 3112 3113 3114 3114 3115 3115 3116 3116 3117 3118 3119 3119 3120 3121 3121 3122 3123 3123 3124 3124 3125 3125 3125 3126
3085 3085 3084 3083 3082 3081 3080 3080 3079 3078 3077 3076 3076 3076 3076 3076 3075 3075 3075 3075 3076 3076 3076 3076 3077 3077 3077 3078 3078 3078 3078 3078 3077 3077 3077 3077 3077 3078 3078 3079 3079 3080 3080 3081 3082 3083 3084 3086 3088 3090 3091 3092 3093 3095 3097 3098 3099 3100 3102 3103 3104 3105 3107 3110 3111 3112 3113 3113 3114 3114 3114 3115 3116 3117 3118 3118 3119 3120 3120 3121 3121 3122 3123 3124 3124 3125 3125 3125
3084 3084 3083 3082 3081 3080 3080 3079 3078 3077 3076 3075 3075 3074 3074 3074 3074 3074 3074 3074 3074 3075 3075 3075 3076 3076 3076 3076 3076 3076 3077 3077 3076 3076 3076 3076 3076 3076 3077 3078 3078 3079 3079 3080 3081 3082 3083 3085 3087 3089 3090 3091 3093 3095 3096 3097 3098 3100 3101 3102 3104 3105 3107 3109 3110 3110 3111 3111 3112 3112 3113 3114 3115 3115 3116 3117 3118 3119 3119 3120 3120 3121 3121 3122 3123 3124 3124 3125
3083 3082 3082 3081 3080 3079 3079 3078 3077 3076 3075 3074 3074 3073 3073 3073 3073 3072 3073 3073 3073 3073 3074 3074 3074 3075 3075 3075 3075 3075 3076 3075 3075 3075 3075 3075 3075 3075 3076 3076 3077 3077 3078 3079 3080 3081 3083 3084 3086 3088 3090 3091 3093 3095 3096 3097 3098 3099 3100 3101 3103 3104 3105 3107 3108 3108 3109 3110 3110 3110 3111 3112 3113 3113 3114 3116 3117 3118 3118 3119 3119 3119 3120 3121 3122 3123 3124 3124
3082 3081 3081 3080 3079 3078 3077 3077 3076 3075 3074 3073 3073 3072 3072 3071 3071 3071 3071 3071 3072 3072 3072 3073 3073 3073 3073 3074 3074 3074 3074 3074 3074 3074 3074 3074 3074 3074 3075 3075 3076 3076 3077 3078 3079 3080 3082 3084 3086 3087 3089 3091 3092 3094 3095 3096 3097 3098 3099 3100 3101 3102 3104 3105 3106 3107 3108 3108 3109 3109 3110 3111 3111 3112 3113 3114 3115 3116 3117 3117 3117 3118 3120 3121 3122 3122 3123 3124
3081 3080 3079 3079 3078 3077 3076 3076 3075 3074 3073 3073 3072 3071 3071 3070 3070 3070 3070 3070 3070 3070 3071 3071 3071 3072 3072 3072 3072 3073 3073 3073 3073 3073 3073 3073 3073 3073 3074 3074 3075 3075 3076 3077 3078 3080 3081 3084 3085 3087 3088 3090 3091 3093 3093 3095 3096 3097 3098 3099 3100 3101 3102 3103 3105 3106 3106 3107 3107 3108 3109 3109 3110 3110 3111 3112 3114 3115 3115 3116 3117 3118 3119 3121 3121 3122 3123 3124
3080 3079 3078 3077 3077 3076 3075 3074 3074 3073 3072 3071 3071 3070 3070 3069 3069 3069 3069 3069 3069 3069 3070 3070 3070 3070 3071 3071 3071 3071 3071 3072 3072 3072 3072 3072 3072 3072 3073 3073 3074 3074 3076 3077 3078 3080 3082 3083 3084 3086 3088 3089 3090 3091 3092 3094 3095 3096 3097 3097 3099 3100 3101 3102 3103 3104 3105 3105 3106 3107 3108 3108 3108 3109 3110 3111 3113 3114 3114 3115 3116 3117 3119 3120 3121 3121 3122 3123
3079 3078 3077 3076 3075 3075 3074 3073 3073 3072 3071 3070 3069 3069 3069 3068 3068 3068 3068 3068 3068 3068 3068 3068 3069 3069 3069 3070 3070 3070 3070 3071 3071 3071 3071 3071 3071 3071 3072 3072 3073 3074 3075 3077 3079 3080 3081 3082 3083 3085 3086 3087 3089 3091 3092 3093 3094 3095 3096 3097 3098 3099 3100 3101 3102 3103 3104 3104 3105 3106 3106 3105 3106 3108 3109 3110 3112 3113 3113 3114 3115 3116 3118 3119 3120 3121 3121 3122
3078 3077 3076 3075 3075 3074 3073 3072 3071 3071 3070 3069 3068 3068 3067 3067 3067 3066 3066 3066 3067 3067 3067 3067 3067 3067 3068 3068 3068 3068 3069 3070 3070 3070 3070 3070 3071 3071 3071 3072 3073 3073 3074 3077 3078 3080 3081 3082 3083 3084 3085 3087 3089 3090 3091 3092 3093 3095 3095 3096 3097 3098 3099 3100 3101 3102 3102 3103 3104 3104 3103 3104 3105 3107 3108 3109 3110 3111 3112 3113 3114 3115 3117 3118 3119 3119 3120 3121
3077 3076 3075 3075 3074 3073 3072 3071 3070 3069 3069 3068 3067 3067 3066 3066 3065 3065 3065 3065 3065 3065 3065 3066 3066 3066 3067 3067 3067 3068 3069 3069 3069 3069 3070 3070 3070 3070 3071 3072 3073 3073 3074 3076 3077 3079 3080 3081 3082 3084 3085 3087 3088 3089 3091 3092 3093 3094 3095 3096 3097 3097 3098 3099 3100 3100 3101 3102 3102 3102 3102 3103 3104 3105 3107 3108 3109 3110 3111 3112 3113 3114 3116 3117 3118 3119 3119 3120
3076 3075 3075 3074 3073 3072 3071 3070 3069 3068 3068 3067 3066 3066 3065 3064 3064 3063 3063 3063 3064 3064 3064 3064 3065 3065 3066 3066 3066 3067 3068 3068 3068 3069 3069 3069 3069 3070 3071 3072 3073 3073 3074 3075 3077 3078 3080 3081 3082 3084 3085 3086 3087 3089 3090 3091 3092 3093 3094 3095 3096 3096 3097 3098 3098 3098 3099 3100 3101 3101 3100 3101 3103 3104 3105 3107 3108 3109 3110 3111 3113 3113 3115 3116 3117 3118 3118 3119
3075 3075 3074 3073 3072 3071 3070 3069 3068 3068 3067 3066 3065 3064 3064 3063 3062 3062 3062 3062 3062 3062 3062 3063 3064 3064 3065 3065 3065 3066 3067 3067 3067 3068 3068 3069 3069 3069 3070 3071 3072 3073 3074 3075 3077 3078 3079 3081 3082 3083 3085 3086 3087 3088 3090 3090 3091 3092 3093 3094 3095 3095 3096 3096 3097 3097 3098 3098 3098 3098 3098 3099 3101 3102 3103 3105 3106 3107 3109 3110 3111 3112 3114 3115 3116 3117 3118 3119
3074 3073 3073 3072 3071 3070 3069 3068 3068 3067 3066 3065 3064 3063 3063 3062 3061 3061 3061 3060 3060 3060 3061 3062 3063 3063 3064 3064 3064 3065 3065 3065 3066 3066 3067 3068 3068 3069 3070 3071 3072 3073 3074 3075 3077 3078 3079 3081 3082 3083 3084 3085 3087 3088 3089 3090 3090 3092 3093 3093 3094 3094 3095 3095 3095 3096 3096 3096 3096 3096 3097 3098 3099 3100 3101 3103 3104 3106 3107 3108 3110 3111 3112 3114 3115 3116 3117 3118
3073 3072 3072 3071 3070 3069 3068 3067 3067 3066 3065 3064 3063 3062 3062 3061 3060 3060 3059 3059 3059 3059 3060 3061 3062 3062 3063 3063 3063 3064 3064 3065 3065 3065 3066 3067 3068 3068 3070 3071 3072 3073 3074 3075 3077 3078 3079 3081 3082 3083 3084 3085 3086 3087 3088 3089 3090 3091 3092 3092 3093 3093 3094 3094 3094 3094 3093 3093 3093 3094 3095 3096 3098 3099 3100 3101 3103 3104 3105 3107 3108 3110 3111 3112 3114 3116 3117 3118
3072 3071 3070 3070 3069 3068 3067 3066 3066 3065 3065 3064 3063 3062 3061 3060 3060 3059 3059 3058 3058 3059 3059 3060 3060 3061 3061 3062 3062 3063 3064 3064 3064 3065 3066 3067 3067 3068 3069 3070 3071 3073 3074 3075 3077 3078 3079 3080 3081 3082 3083 3084 3085 3086 3087 3089 3090 3090 3091 3091 3092 3092 3092 3092 3092 3092 3091 3090 3090 3091 3093 3094 3096 3098 3099 3100 3102 3103 3104 3105 3107 3108 3110 3112 3114 3115 3117 3118
3070 3070 3069 3068 3068 3067 3066 3065 3065 3064 3064 3063 3062 3061 3060 3060 3059 3059 3058 3058 3058 3058 3058 3058 3058 3059 3060 3061 3061 3062 3063 3064 3064 3065 3065 3066 3067 3068 3069 3070 3071 3073 3074 3075 3077 3078 3079 3079 3080 3081 3082 3084 3085 3086 3087 3088 3089 3089 3090 3090 3091 3091 3091 3091 3091 3090 3088 3087 3088 3090 3091 3093 3095 3096 3098 3099 3100 3101 3102 3103 3105 3106 3109 3112 3114 3115 3116 3117
3069 3068 3068 3067 3066 3066 3065 3065 3064 3064 3063 3062 3061 3061 3060 3059 3059 3058 3057 3057 3058 3057 3056 3056 3056 3058 3059 3059 3060 3062 3062 3063 3063 3064 3065 3066 3067 3068 3069 3070 3071 3072 3074 3075 3076 3077 3078 3078 3079 3080 3082 3083 3084 3085 3086 3087 3088 3088 3089 3089 3090 3090 3090 3089 3089 3089 3087 3086 3086 3088 3090 3092 3094 3096 3097 3098 3098 3099 3101 3102 3104 3106 3109 3111 3113 3115 3116 3116
3067 3067 3066 3066 3065 3065 3064 3064 3063 3063 3062 3061 3061 3060 3059 3058 3058 3058 3056 3055 3056 3055 3054 3054 3055 3056 3058 3059 3060 3061 3061 3062 3063 3064 3064 3065 3066 3067 3068 3069 3070 3072 3073 3075 3075 3076 3077 3077 3078 3080 3081 3082 3083 3084 3085 3086 3087 3087 3088 3088 3089 3089 3089 3088 3089 3088 3087 3086 3086 3087 3089 3091 3093 3095 3096 3097 3098 3099 3100 3102 3104 3106 3109 3111 3113 3114 3115 3116
3065 3065 3065 3064 3064 3063 3063 3063 3062 3062 3061 3061 3060 3059 3059 3059 3058 3058 3056 3054 3053 3053 3052 3052 3053 3054 3057 3058 3059 3060 3060 3062 3062 3063 3064 3065 3066 3067 3068 3069 3071 3072 3073 3074 3075 3076 3076 3077 3079 3080 3080 3081 3082 3083 3084 3085 3086 3086 3087 3088 3088 3088 3088 3088 3088 3088 3087 3086 3085 3086 3088 3090 3092 3094 3095 3096 3097 3099 3100 3102 3104 3106 3108 3111 3112 3113 3114 3115
3063 3063 3063 3063 3062 3062 3062 3062 3061 3061 3061 3060 3059 3058 3059 3059 3059 3057 3056 3053 3052 3052 3051 3051 3051 3053 3055 3056 3057 3059 3060 3061 3062 3063 3064 3064 3066 3067 3068 3070 3071 3072 3073 3074 3075 3075 3076 3077 3078 3079 3080 3081 3082 3082 3083 3084 3085 3085 3086 3086 3086 3087 3087 3087 3087 3088 3087 3086 3086 3086 3088 3090 3092 3093 3095 3096 3097 3098 3100 3102 3103 3105 3107 3110 3112 3112 3114 3115
3061 3061 3061 3061 3061 3060 3060 3060 3060 3060 3060 3059 3058 3059 3059 3059 3059 3058 3056 3053 3050 3050 3050 3049 3050 3052 3053 3054 3056 3058 3060 3060 3061 3062 3063 3064 3065 3066 3068 3069 3070 3071 3072 3073 3074 3075 3076 3077 3077 3078 3079 3080 3080 3081 3082 3083 3083 3084 3084 3085 3085 3086 3087 3087 3087 3087 3087 3087 3087 3086 3088 3090 3091 3093 3094 3095 3096 3098 3099 3101 3102 3104 3106 3108 3110 3111 3113 3114
3059 3059 3059 3059 3059 3059 3059 3059 3059 3059 3059 3058 3058 3059 3059 3059 3059 3058 3056 3053 3050 3049 3049 3049 3050 3050 3051 3053 3055 3058 3059 3060 3061 3062 3063 3064 3065 3066 3067 3068 3069 3071 3072 3073 3074 3074 3075 3076 3077 3077 3078 3078 3079 3079 3080 3081 3082 3083 3083 3084 3084 3085 3086 3086 3086 3086 3086 3087 3087 3087 3088 3091 3092 3092 3094 3094 3095 3097 3098 3100 3102 3103 3105 3107 3108 3110 3112 3112
3057 3057 3056 3056 3057 3057 3057 3057 3058 3058 3058 3058 3057 3058 3059 3059 3059 3058 3056 3054 3050 3048 3048 3048 3049 3049 3050 3053 3054 3057 3058 3059 3060 3061 3062 3063 3065 3065 3066 3067 3069 3070 3071 3072 3073 3073 3074 3075 3076 3076 3076 3076 3077 3078 3079 3080 3081 3082 3082 3083 3084 3084 3085 3085 3085 3086 3086 3086 3087 3087 3087 3089 3092 3093 3093 3094 3095 3096 3097 3098 3100 3102 3104 3105 3107 3109 3110 3112
3055 3054 3054 3054 3054 3055 3055 3055 3056 3056 3056 3057 3057 3058 3059 3059 3059 3058 3058 3056 3051 3048 3048 3048 3049 3049 3050 3051 3053 3056 3058 3058 3059 3060 3061 3063 3064 3065 3065 3066 3068 3070 3070 3071 3071 3072 3073 3074 3074 3075 3075 3075 3076 3077 3078 3079 3080 3080 3081 3082 3083 3084 3084 3085 3085 3085 3086 3086 3087 3087 3087 3089 3092 3093 3093 3094 3095 3095 3096 3097 3099 3101 3102 3104 3106 3108 3109 3111
3052 3051 3051 3052 3052 3052 3053 3054 3054 3054 3055 3056 3056 3057 3058 3059 3059 3058 3059 3057 3050 3048 3049 3049 3049 3049 3050 3051 3052 3055 3057 3057 3058 3059 3061 3062 3063 3064 3064 3066 3067 3068 3069 3070 3070 3071 3072 3072 3073 3073 3073 3074 3075 3076 3077 3078 3079 3079 3081 3081 3082 3083 3084 3084 3085 3085 3086 3086 3086 3087 3088 3089 3091 3092 3092 3094 3094 3095 3096 3096 3098 3100 3101 3103 3105 3107 3108 3109
3049 3049 3048 3049 3049 3049 3050 3052 3052 3052 3053 3054 3055 3056 3057 3058 3058 3059 3059 3055 3049 3049 3049 3049 3049 3050 3050 3051 3052 3054 3055 3056 3057 3058 3060 3061 3062 3063 3063 3064 3066 3067 3068 3068 3068 3069 3070 3071 3071 3072 3072 3073 3074 3074 3076 3077 3078 3079 3080 3080 3081 3082 3083 3084 3084 3085 3086 3086 3086 3087 3087 3088 3090 3092 3092 3092 3093 3094 3095 3096 3097 3098 3100 3101 3103 3105 3107 3108
3046 3046 3045 3046 3047 3047 3048 3050 3049 3049 3051 3053 3054 3055 3056 3057 3057 3059 3057 3051 3048 3049 3049 3048 3049 3049 3050 3051 3051 3053 3054 3055 3057 3057 3059 3060 3061 3061 3061 3063 3064 3065 3066 3066 3066 3067 3068 3069 3070 3071 3071 3072 3073 3074 3075 3076 3076 3077 3078 3079 3080 3082 3082 3083 3084 3084 3086 3087 3086 3086 3086 3087 3088 3090 3091 3091 3092 3093 3095 3096 3097 3098 3099 3100 3102 3104 3106 3107
3043 3043 3042 3042 3043 3044 3046 3047 3047 3047 3049 3050 3052 3053 3054 3055 3055 3054 3052 3049 3048 3048 3048 3048 3048 3049 3050 3050 3050 3052 3052 3054 3055 3056 3057 3058 3059 3059 3060 3061 3062 3064 3065 3065 3066 3066 3066 3067 3069 3069 3070 3071 3072 3072 3074 3075 3075 3076 3077 3078 3080 3082 3083 3084 3085 3085 3086 3086 3085 3085 3086 3086 3086 3088 3089 3090 3091 3092 3094 3095 3096 3097 3098 3099 3101 3103 3104 3105
3040 3039 3039 3039 3039 3042 3043 3044 3044 3044 3046 3048 3050 3051 3052 3053 3051 3048 3048 3048 3047 3047 3047 3047 3048 3048 3049 3049 3049 3050 3051 3052 3053 3055 3056 3057 3058 3058 3059 3060 3061 3062 3063 3064 3065 3065 3065 3066 3067 3068 3068 3069 3070 3071 3072 3073 3074 3075 3076 3077 3078 3081 3084 3086 3088 3088 3086 3084 3084 3085 3085 3084 3084 3085 3086 3088 3090 3091 3092 3093 3095 3095 3096 3097 3098 3100 3102 3103
3037 3036 3036 3036 3036 3038 3040 3040 3041 3042 3044 3046 3047 3048 3050 3049 3046 3045 3046 3046 3046 3046 3046 3046 3047 3047 3048 3048 3049 3049 3050 3051 3052 3053 3054 3055 3056 3056 3057 3058 3059 3061 3062 3063 3064 3064 3065 3065 3065 3066 3067 3067 3068 3069 3070 3072 3073 3073 3074 3075 3076 3077 3080 3083 3085 3084 3083 3083 3084 3084 3084 3083 3083 3084 3085 3086 3088 3090 3091 3092 3093 3094 3094 3095 3095 3097 3099 3100
3034 3033 3032 3033 3033 3034 3035 3037 3038 3039 3040 3042 3044 3045 3044 3043 3043 3043 3044 3045 3045 3045 3045 3045 3046 3046 3047 3047 3048 3048 3049 3049 3050 3051 3052 3053 3054 3054 3055 3056 3057 3059 3060 3062 3063 3063 3064 3063 3063 3065 3065 3066 3067 3068 3069 3070 3071 3072 3073 3074 3075 3075 3076 3079 3080 3080 3081 3082 3083 3084 3083 3083 3083 3084 3085 3086 3087 3089 3089 3090 3091 3092 3092 3092 3092 3094 3096 3097
3031 3030 3029 3029 3029 3030 3032 3033 3035 3036 3037 3039 3041 3040 3039 3039 3041 3042 3043 3043 3043 3043 3044 3044 3045 3045 3045 3046 3046 3047 3047 3048 3049 3049 3050 3051 3052 3053 3053 3055 3056 3057 3058 3060 3061 3062 3062 3062 3062 3063 3064 3065 3066 3066 3067 3068 3069 3070 3071 3072 3073 3074 3075 3076 3079 3080 3081 3082 3083 3083 3082 3083 3083 3084 3084 3085 3086 3087 3088 3089 3089 3090 3091 3091 3091 3092 3094 3094
3029 3027 3026 3025 3026 3027 3029 3030 3032 3032 3034 3036 3036 3036 3036 3038 3040 3041 3041 3042 3042 3042 3043 3043 3044 3044 3044 3044 3045 3046 3046 3047 3048 3048 3048 3050 3050 3051 3052 3053 3054 3055 3056 3058 3059 3060 3061 3061 3061 3062 3062 3063 3064 3065 3065 3067 3068 3069 3069 3070 3071 3072 3074 3074 3077 3081 3082 3082 3082 3082 3082 3083 3083 3083 3084 3085 3085 3086 3087 3087 3088 3089 3090 3091 3091 3092 3094 3094
3026 3024 3023 3022 3023 3024 3026 3027 3028 3029 3031 3032 3032 3033 3034 3036 3038 3039 3040 3040 3041 3041 3042 3042 3043 3043 3043 3043 3043 3044 3045 3046 3046 3047 3047 3048 3049 3049 3050 3051 3052 3053 3055 3057 3058 3059 3060 3060 3061 3061 3061 3062 3063 3063 3064 3065 3066 3067 3067 3068 3069 3070 3071 3072 3075 3079 3081 3083 3083 3083 3082 3082 3082 3083 3083 3084 3085 3085 3086 3087 3088 3089 3090 3091 3091 3092 3094 3095
3023 3022 3021 3020 3020 3022 3023 3024 3025 3026 3027 3028 3029 3031 3031 3033 3035 3037 3038 3039 3040 3040 3041 3041 3042 3042 3042 3042 3042 3043 3044 3044 3045 3046 3046 3047 3047 3048 3049 3050 3051 3051 3053 3054 3056 3058 3059 3060 3060 3060 3060 3061 3061 3062 3062 3063 3064 3065 3066 3067 3067 3068 3069 3070 3072 3074 3076 3081 3084 3083 3083 3081 3080 3082 3083 3083 3084 3086 3086 3087 3088 3089 3090 3091 3092 3093 3095 3096
3021 3020 3019 3018 3018 3019 3020 3021 3022 3023 3024 3024 3026 3028 3029 3031 3034 3035 3037 3038 3038 3039 3040 3040 3040 3040 3040 3041 3041 3042 3042 3043 3044 3045 3046 3046 3046 3047 3048 3049 3049 3050 3051 3052 3054 3056 3058 3059 3059 3060 3060 3060 3060 3060 3061 3061 3062 3063 3064 3065 3066 3067 3068 3069 3071 3072 3073 3077 3080 3081 3081 3079 3079 3081 3082 3083 3084 3085 3086 3088 3088 3090 3091 3092 3094 3094 3095 3096
3019 3018 3018 3017 3017 3018 3018 3018 3019 3020 3021 3022 3025 3027 3028 3030 3032 3034 3035 3036 3036 3037 3038 3038 3039 3039 3039 3039 3040 3041 3041 3042 3042 3043 3045 3045 3045 3046 3047 3047 3048 3049 3050 3050 3052 3054 3056 3057 3058 3059 3059 3059 3059 3059 3060 3061 3061 3062 3063 3063 3064 3065 3067 3068 3070 3071 3071 3073 3075 3077 3078 3077 3077 3079 3081 3082 3084 3085 3086 3087 3088 3090 3091 3092 3093 3094 3095 3096
3018 3017 3017 3016 3016 3017 3017 3017 3017 3019 3020 3021 3024 3026 3028 3029 3030 3032 3033 3034 3035 3035 3036 3036 3037 3037 3037 3038 3038 3039 3040 3041 3041 3042 3042 3044 3044 3045 3045 3046 3048 3049 3049 3049 3050 3052 3054 3055 3057 3058 3058 3058 3059 3059 3059 3060 3061 3061 3062 3063 3063 3064 3065 3066 3068 3069 3070 3071 3072 3073 3074 3076 3077 3078 3080 3081 3083 3084 3085 3086 3087 3089 3090 3092 3093 3094 3095 3096
3017 3016 3016 3016 3016 3016 3017 3017 3017 3018 3020 3021 3023 3025 3027 3028 3029 3030 3031 3032 3033 3033 3034 3035 3035 3035 3036 3036 3036 3037 3038 3039 3039 3040 3041 3042 3043 3044 3044 3045 3046 3047 3049 3049 3049 3051 3052 3054 3055 3057 3057 3058 3058 3058 3058 3059 3060 3060 3061 3062 3062 3063 3064 3065 3066 3067 3068 3070 3071 3072 3074 3075 3076 3077 3079 3080 3081 3082 3084 3085 3087 3088 3090 3091 3092 3093 3095 3096
3017 3016 3016 3016 3016 3016 3016 3017 3017 3018 3020 3021 3022 3024 3026 3027 3027 3028 3030 3030 3031 3032 3032 3033 3033 3034 3034 3034 3035 3035 3036 3037 3038 3039 3040 3041 3042 3043 3043 3043 3044 3046 3047 3049 3049 3049 3050 3052 3053 3055 3057 3058 3058 3058 3058 3058 3059 3059 3060 3061 3062 3063 3063 3064 3065 3066 3067 3068 3069 3070 3072 3073 3075 3076 3077 3079 3080 3082 3083 3084 3086 3088 3090 3091 3092 3093 3094 3095
3018 3017 3016 3016 3015 3015 3016 3016 3016 3018 3019 3020 3022 3023 3024 3025 3026 3027 3028 3028 3029 3030 3031 3032 3032 3032 3033 3033 3034 3034 3035 3035 3036 3037 3039 3039 3040 3041 3042 3042 3043 3045 3046 3047 3048 3049 3049 3050 3051 3052 3054 3056 3056 3056 3056 3057 3058 3058 3059 3060 3061 3062 3063 3064 3064 3065 3065 3067 3068 3069 3070 3071 3073 3075 3076 3078 3079 3080 3082 3084 3085 3087 3089 3090 3091 3092 3093 3095
3018 3017 3017 3016 3016 3015 3016 3015 3016 3017 3018 3019 3021 3022 3023 3024 3025 3025 3026 3027 3028 3029 3030 3030 3031 3031 3032 3032 3033 3033 3034 3034 3035 3036 3037 3038 3039 3039 3040 3041 3042 3044 3045 3046 3047 3048 3048 3049 3050 3050 3051 3052 3053 3054 3055 3056 3057 3058 3058 3059 3061 3062 3063 3063 3064 3064 3065 3066 3067 3068 3069 3070 3072 3073 3075 3076 3078 3079 3080 3082 3084 3085 3087 3088 3090 3091 3092 3093
3018 3017 3017 3017 3016 3016 3016 3015 3015 3015 3016 3018 3020 3021 3021 3023 3023 3024 3025 3026 3027 3028 3029 3029 3030 3030 3031 3031 3032 3032 3032 3034 3035 3035 3036 3037 3037 3038 3039 3040 3041 3043 3045 3046 3047 3047 3047 3049 3050 3051 3051 3052 3053 3054 3055 3056 3056 3057 3058 3058 3059 3061 3062 3063 3064 3064 3065 3065 3066 3067 3068 3069 3071 3072 3073 3075 3076 3078 3079 3080 3082 3083 3085 3086 3088 3089 3090 3091
3019 3018 3017 3017 3016 3016 3016 3015 3014 3014 3014 3015 3017 3019 3020 3021 3022 3023 3024 3025 3026 3027 3028 3028 3029 3030 3030 3031 3031 3031 3032 3033 3034 3034 3035 3036 3036 3037 3038 3039 3040 3041 3043 3045 3046 3047 3047 3049 3051 3052 3053 3054 3054 3055 3056 3056 3056 3057 3058 3058 3058 3060 3062 3063 3064 3065 3065 3066 3066 3067 3067 3068 3069 3071 3072 3074 3075 3076 3078 3079 3080 3082 3083 3084 3085 3087 3088 3089
3020 3019 3019 3018 3017 3017 3016 3016 3015 3015 3014 3014 3016 3017 3018 3020 3021 3022 3023 3024 3025 3026 3027 3027 3028 3029 3029 3030 3030 3031 3031 3032 3033 3034 3034 3035 3036 3036 3037 3038 3039 3040 3041 3042 3044 3046 3047 3049 3050 3052 3054 3055 3055 3055 3055 3055 3056 3057 3058 3059 3059 3059 3060 3062 3064 3065 3066 3066 3066 3066 3067 3068 3069 3070 3071 3073 3074 3075 3077 3078 3079 3081 3082 3082 3084 3085 3086 3087
3022 3021 3021 3020 3019 3018 3018 3017 3017 3017 3016 3015 3016 3016 3017 3019 3020 3021 3022 3023 3024 3025 3026 3027 3027 3028 3029 3030 3030 3031 3031 3031 3032 3033 3034 3034 3035 3035 3036 3037 3038 3039 3039 3041 3042 3044 3046 3048 3049 3050 3053 3054 3054 3055 3055 3055 3056 3057 3058 3059 3059 3060 3060 3062 3064 3065 3065 3066 3066 3067 3067 3068 3069 3070 3071 3072 3073 3075 3076 3077 3078 3079 3080 3081 3082 3083 3084 3085
3023 3023 3022 3022 3021 3020 3019 3018 3018 3018 3018 3018 3017 3017 3017 3018 3020 3021 3023 3023 3024 3024 3025 3026 3027 3028 3028 3029 3030 3031 3031 3032 3033 3033 3034 3034 3034 3035 3036 3037 3038 3038 3039 3040 3041 3042 3044 3046 3047 3048 3050 3052 3053 3054 3055 3056 3057 3057 3058 3058 3059 3060 3060 3062 3064 3065 3065 3065 3065 3066 3066 3067 3068 3069 3070 3071 3072 3074 3075 3076 3077 3078 3079 3080 3081 3082 3083 3084
3024 3023 3023 3023 3022 3022 3021 3020 3020 3020 3020 3020 3020 3020 3020 3020 3021 3023 3024 3024 3025 3025 3026 3026 3027 3028 3028 3029 3030 3031 3032 3033 3033 3034 3034 3034 3034 3035 3035 3036 3037 3038 3039 3040 3041 3042 3043 3044 3045 3046 3048 3050 3052 3053 3053 3055 3056 3056 3056 3057 3058 3059 3060 3061 3063 3064 3064 3065 3065 3065 3065 3066 3067 3068 3069 3070 3071 3072 3074 3075 3076 3077 3078 3079 3080 3081 3082 3082